C31FR-13 Weather Reports


Display with metric or nautical units.
time (UTC)temp
F
wind
direction
speed
MPH
gust
MPH
rain 1hr
in
rain 24hr
in
rain mn
in
humidity
%
barometer
mb
20260507124603 61 0.0 0.0 0.00 0.00 0.00 41 1011.4
20260507124103 61 0.0 0.0 0.00 0.00 0.00 41 1011.4
20260507123602 61 0.0 0.0 0.00 0.00 0.00 42 1011.5
20260507123102 61 0.0 0.0 0.00 0.00 0.00 42 1011.6
20260507122603 61 0.0 0.0 0.00 0.00 0.00 43 1011.6
20260507122102 60 0.0 0.0 0.00 0.00 0.00 44 1011.7
20260507121603 61 0.0 0.0 0.00 0.00 0.00 44 1011.7
20260507121103 60 0.0 0.0 0.00 0.00 0.00 44 1011.7
20260507120603 60 0.0 0.0 0.00 0.00 0.00 45 1011.8
20260507115603 60 0.0 0.0 0.00 0.00 0.00 45 1011.8
20260507115102 60 0.0 0.0 0.00 0.00 0.00 45 1011.9
20260507114602 59 0.0 0.0 0.00 0.00 0.00 45 1012.1
20260507114102 60 0.0 0.0 0.00 0.00 0.00 44 1012.1
20260507113603 59 0.0 0.0 0.00 0.00 0.00 45 1012.2
20260507113103 59 0.0 0.0 0.00 0.00 0.00 46 1012.3
20260507112602 59 0.0 0.0 0.00 0.00 0.00 45 1012.3
20260507112103 59 0.0 0.0 0.00 0.00 0.00 46 1012.3
20260507111602 59 0.0 0.0 0.00 0.00 0.00 46 1012.4
20260507111103 59 0.0 0.0 0.00 0.00 0.00 46 1012.5
20260507110602 59 0.0 0.0 0.00 0.00 0.00 46 1012.5
20260507105603 58 0.0 0.0 0.00 0.00 0.00 48 1012.7
20260507105103 58 0.0 0.0 0.00 0.00 0.00 48 1012.7
20260507104603 58 0.0 0.0 0.00 0.00 0.00 47 1012.7
20260507104102 58 0.0 0.0 0.00 0.00 0.00 45 1012.8
20260507103602 57 0.0 0.0 0.00 0.00 0.00 46 1012.8
20260507103102 57 0.0 0.0 0.00 0.00 0.00 47 1012.8
20260507102602 57 0.0 0.0 0.00 0.00 0.00 49 1012.9
20260507102102 57 0.0 0.0 0.00 0.00 0.00 50 1013.0
20260507101603 56 0.0 0.0 0.00 0.00 0.00 49 1013.1
20260507101102 56 0.0 0.0 0.00 0.00 0.00 49 1013.3
20260507100602 56 0.0 0.0 0.00 0.00 0.00 50 1013.4
20260507095603 56 0.0 0.0 0.00 0.00 0.00 52 1013.4
20260507095103 55 0.0 0.0 0.00 0.00 0.00 53 1013.4
20260507094603 55 0.0 0.0 0.00 0.00 0.00 52 1013.5
20260507094102 55 0.0 0.0 0.00 0.00 0.00 54 1013.5
20260507093602 55 0.0 0.0 0.00 0.00 0.00 54 1013.5
20260507093103 55 0.0 0.0 0.00 0.00 0.00 55 1013.7
20260507092102 54 0.0 0.0 0.00 0.00 0.00 56 1013.7
20260507091602 54 0.0 0.0 0.00 0.00 0.00 60 1013.7
20260507091103 53 0.0 0.0 0.00 0.00 0.00 60 1013.7
20260507085102 53 0.0 0.0 0.00 0.00 0.00 64 1013.7
20260507084602 53 0.0 0.0 0.00 0.00 0.00 64 1013.8
20260507084102 53 0.0 0.0 0.00 0.00 0.00 69 1013.7
20260507083603 53 0.0 0.0 0.00 0.00 0.00 68 1013.8
20260507083103 52 0.0 0.0 0.00 0.00 0.00 68 1013.9
20260507082603 52 0.0 0.0 0.00 0.00 0.00 70 1013.9
20260507082108 52 0.0 0.0 0.00 0.00 0.00 70 1013.9
20260507081602 51 0.0 0.0 0.00 0.00 0.00 71 1014.0
20260507081102 51 0.0 0.0 0.00 0.00 0.00 73 1014.0
20260507080602 51 0.0 0.0 0.00 0.00 0.00 75 1014.0
20260507075603 51 0.0 0.0 0.00 0.00 0.00 75 1014.2
20260507075102 51 0.0 0.0 0.00 0.00 0.00 76 1014.2
20260507074602 51 0.0 0.0 0.00 0.00 0.00 75 1014.2
20260507074103 50 0.0 0.0 0.00 0.00 0.00 76 1014.2
20260507073602 50 0.0 0.0 0.00 0.00 0.00 77 1014.2
20260507073102 50 0.0 0.0 0.00 0.00 0.00 78 1014.3
20260507072602 51 0.0 0.0 0.00 0.00 0.00 78 1014.2
20260507072102 50 0.0 0.0 0.00 0.00 0.00 81 1014.2
20260507071602 50 0.0 0.0 0.00 0.00 0.00 79 1014.2
20260507071102 50 0.0 0.0 0.00 0.00 0.00 78 1014.2
20260507070603 50 0.0 0.0 0.00 0.00 0.00 81 1014.2
20260507065602 50 0.0 0.0 0.00 0.00 0.00 81 1014.2
20260507065103 50 0.0 0.0 0.00 0.00 0.00 80 1014.1
20260507064603 50 0.0 0.0 0.00 0.00 0.00 81 1014.2
20260507064102 49 0.0 0.0 0.00 0.00 0.00 83 1014.2
20260507063103 49 0.0 0.0 0.00 0.00 0.00 84 1014.3
20260507062602 49 0.0 0.0 0.00 0.00 0.00 83 1014.2
20260507062102 49 0.0 0.0 0.00 0.00 0.00 84 1014.2
20260507061602 49 0.0 0.0 0.00 0.00 0.00 85 1014.2
20260507061102 49 0.0 0.0 0.00 0.00 0.00 84 1014.3
20260507060602 49 0.0 0.0 0.00 0.00 0.00 85 1014.3
20260507055602 49 0.0 0.0 0.00 0.00 0.00 85 1014.4
20260507055103 49 0.0 0.0 0.00 0.00 0.00 85 1014.4
20260507054603 49 0.0 0.0 0.00 0.00 0.00 87 1014.3
20260507054102 48 0.0 0.0 0.00 0.00 0.00 88 1014.3
20260507053603 49 0.0 0.0 0.00 0.00 0.00 86 1014.3
20260507053102 49 0.0 0.0 0.00 0.00 0.00 84 1014.3
20260507052603 47 0.0 0.0 0.00 0.00 0.00 85 1014.3
20260507052102 47 0.0 0.0 0.00 0.00 0.00 87 1014.3
20260507051603 47 0.0 0.0 0.00 0.00 0.00 86 1014.2
20260507051102 47 0.0 0.0 0.00 0.00 0.00 86 1014.2
20260507050603 48 0.0 0.0 0.00 0.00 0.00 87 1014.1
20260507045102 49 0.0 0.0 0.00 0.00 0.00 86 1013.9
20260507044603 48 0.0 0.0 0.00 0.00 0.00 88 1013.9
20260507044101 49 0.0 0.0 0.00 0.00 0.00 86 1013.9
20260507043603 49 0.0 0.0 0.00 0.00 0.00 87 1013.9
20260507043102 49 0.0 0.0 0.00 0.00 0.00 88 1013.8
20260507042604 49 0.0 0.0 0.00 0.00 0.00 87 1013.9
20260507042103 50 0.0 0.0 0.00 0.00 0.00 86 1013.8
20260507041603 49 0.0 0.0 0.00 0.00 0.00 87 1013.8
20260507041102 49 0.0 0.0 0.00 0.00 0.00 89 1013.9
20260507040604 49 0.0 0.0 0.00 0.00 0.00 89 1013.8
20260507035602 49 0.0 0.0 0.00 0.00 0.00 88 1013.8
20260507035103 50 0.0 0.0 0.00 0.00 0.00 87 1013.8
20260507034602 50 0.0 0.0 0.00 0.00 0.00 88 1013.7
20260507034102 50 0.0 0.0 0.00 0.00 0.00 88 1013.7
20260507033603 49 0.0 0.0 0.00 0.00 0.00 87 1013.8
20260507033102 50 0.0 0.0 0.00 0.00 0.00 87 1013.8
20260507032602 50 0.0 0.0 0.00 0.00 0.00 88 1013.8
20260507032102 50 0.0 0.0 0.00 0.00 0.00 89 1013.8
20260507031603 49 0.0 0.0 0.00 0.00 0.00 91 1013.8
20260507031102 49 0.0 0.0 0.00 0.00 0.00 92 1013.8
20260507030602 49 0.0 0.0 0.00 0.00 0.00 91 1013.9
20260507025603 49 0.0 0.0 0.00 0.00 0.00 93 1013.9
20260507025103 50 0.0 0.0 0.00 0.00 0.00 89 1013.9
20260507024603 50 0.0 0.0 0.00 0.00 0.00 89 1013.9
20260507024103 49 0.0 0.0 0.00 0.00 0.00 90 1014.0
20260507022603 49 0.0 0.0 0.00 0.00 0.00 90 1014.0
20260507022102 49 0.0 0.0 0.00 0.00 0.00 90 1014.0
20260507021603 49 0.0 0.0 0.00 0.00 0.00 90 1013.9
20260507021102 50 0.0 0.0 0.00 0.00 0.00 88 1013.8
20260507020603 50 0.0 0.0 0.00 0.00 0.00 86 1013.8
20260507020104 49 0.0 0.0 0.00 0.00 0.00 89 1013.9
20260507015603 49 0.0 0.0 0.00 0.00 0.00 89 1013.9
20260507015104 49 0.0 0.0 0.00 0.00 0.00 90 1013.9
20260507014102 49 0.0 0.0 0.00 0.00 0.00 87 1014.0
20260507013601 50 0.0 0.0 0.00 0.00 0.00 86 1013.9
20260507013103 49 0.0 0.0 0.00 0.00 0.00 89 1014.0
20260507012602 48 0.0 0.0 0.00 0.00 0.00 88 1014.0
20260507012103 49 0.0 0.0 0.00 0.00 0.00 87 1013.9
20260507011603 49 0.0 0.0 0.00 0.00 0.00 84 1013.9
20260507011103 49 0.0 0.0 0.00 0.00 0.00 85 1013.8
20260507010602 50 0.0 0.0 0.00 0.00 0.00 85 1013.9
20260507005603 50 0.0 0.0 0.00 0.00 0.00 84 1013.9
20260507005102 50 0.0 0.0 0.00 0.00 0.00 85 1014.0
20260507004602 50 0.0 0.0 0.00 0.00 0.00 87 1014.1
20260507004103 50 0.0 0.0 0.00 0.00 0.00 86 1014.2
20260507003603 50 0.0 0.0 0.00 0.00 0.00 85 1014.2
20260507003102 50 0.0 0.0 0.00 0.00 0.00 85 1014.2
20260507002603 50 0.0 0.0 0.00 0.00 0.00 84 1014.2
20260507002102 50 0.0 0.0 0.00 0.00 0.00 85 1014.3
20260507001602 50 0.0 0.0 0.00 0.00 0.00 85 1014.3
20260507001102 49 0.0 0.0 0.00 0.00 0.00 86 1014.4
20260507000602 50 0.0 0.0 0.00 0.00 0.00 85 1014.3
20260506235602 50 0.0 0.0 0.00 0.00 0.00 87 1014.4
20260506235102 50 0.0 0.0 0.00 0.00 0.00 86 1014.4
20260506234603 50 0.0 0.0 0.00 0.00 0.00 86 1014.3
20260506234102 50 0.0 0.0 0.00 0.00 0.00 84 1014.3
20260506233602 49 0.0 0.0 0.00 0.00 0.00 86 1014.4
20260506233103 48 0.0 0.0 0.00 0.00 0.00 86 1014.4
20260506232603 49 0.0 0.0 0.00 0.00 0.00 84 1014.3
20260506232103 49 0.0 0.0 0.00 0.00 0.00 84 1014.3
20260506231602 50 0.0 0.0 0.00 0.00 0.00 85 1014.3
20260506231102 49 0.0 0.0 0.00 0.00 0.00 85 1014.3
20260506230603 49 0.0 0.0 0.00 0.00 0.00 86 1014.3
20260506225603 49 0.0 0.0 0.00 0.00 0.00 88 1014.3
20260506225102 49 0.0 0.0 0.00 0.00 0.00 87 1014.3
20260506224603 49 0.0 0.0 0.00 0.00 0.00 86 1014.3
20260506224102 50 0.0 0.0 0.00 0.00 0.00 86 1014.3
20260506223602 50 0.0 0.0 0.00 0.00 0.00 86 1014.3
20260506223102 50 0.0 0.0 0.00 0.00 0.00 85 1014.2
20260506222603 50 0.0 0.0 0.00 0.00 0.00 85 1014.1
20260506222103 50 0.0 0.0 0.00 0.00 0.00 85 1014.2
20260506221602 50 0.0 0.0 0.00 0.00 0.00 85 1014.1
20260506221103 50 0.0 0.0 0.00 0.00 0.00 83 1014.2
20260506220603 50 0.0 0.0 0.00 0.00 0.00 85 1014.2
20260506215603 50 0.0 0.0 0.00 0.00 0.00 83 1014.1
20260506215102 50 0.0 0.0 0.00 0.00 0.00 84 1014.0
20260506214602 50 0.0 0.0 0.00 0.00 0.00 84 1014.0
20260506214102 50 0.0 0.0 0.00 0.00 0.00 86 1014.0
20260506213602 50 0.0 0.0 0.00 0.00 0.00 86 1014.0
20260506213102 51 0.0 0.0 0.00 0.00 0.00 86 1013.9
20260506212602 51 0.0 0.0 0.00 0.00 0.00 88 1013.9
20260506212103 51 0.0 0.0 0.00 0.00 0.00 89 1013.8
20260506211603 50 0.0 0.0 0.00 0.00 0.00 88 1013.8
20260506211102 50 0.0 0.0 0.00 0.00 0.00 90 1013.8
20260506210602 51 0.0 0.0 0.00 0.00 0.00 84 1013.7
20260506205602 51 0.0 0.0 0.00 0.00 0.00 84 1013.7
20260506205102 51 0.0 0.0 0.00 0.00 0.00 85 1013.6
20260506204602 51 0.0 0.0 0.00 0.00 0.00 85 1013.7
20260506204103 51 0.0 0.0 0.00 0.00 0.00 85 1013.6
20260506203603 51 0.0 0.0 0.00 0.00 0.00 88 1013.6
20260506203102 50 0.0 0.0 0.00 0.00 0.00 88 1013.6
20260506202602 51 0.0 0.0 0.00 0.00 0.00 86 1013.5
20260506202102 51 0.0 0.0 0.00 0.00 0.00 83 1013.5
20260506201603 51 0.0 0.0 0.00 0.00 0.00 84 1013.4
20260506201102 51 0.0 0.0 0.00 0.00 0.00 82 1013.5
20260506200603 51 0.0 0.0 0.00 0.00 0.00 82 1013.4
20260506195603 51 0.0 0.0 0.00 0.00 0.00 84 1013.3
20260506195103 50 0.0 0.0 0.00 0.00 0.00 83 1013.2
20260506194602 51 0.0 0.0 0.00 0.00 0.00 82 1013.1
20260506194103 51 0.0 0.0 0.00 0.00 0.00 85 1013.0
20260506193602 51 0.0 0.0 0.00 0.00 0.00 84 1012.9
20260506193102 51 0.0 0.0 0.00 0.00 0.00 83 1012.8
20260506192603 51 0.0 0.0 0.00 0.00 0.00 83 1012.8
20260506192103 51 0.0 0.0 0.00 0.00 0.00 86 1012.8
20260506191602 51 0.0 0.0 0.00 0.00 0.00 87 1012.7
20260506191102 51 0.0 0.0 0.00 0.00 0.00 88 1012.7
20260506190603 51 0.0 0.0 0.00 0.00 0.00 87 1012.6
20260506185602 51 0.0 0.0 0.00 0.00 0.00 87 1012.5
20260506185103 51 0.0 0.0 0.00 0.00 0.00 85 1012.4
20260506184602 52 0.0 0.0 0.00 0.00 0.00 83 1012.4
20260506184102 52 0.0 0.0 0.00 0.00 0.00 84 1012.4
20260506183603 51 0.0 0.0 0.00 0.00 0.00 83 1012.3
20260506183103 52 0.0 0.0 0.00 0.00 0.00 86 1012.2
20260506182603 52 0.0 0.0 0.00 0.00 0.00 84 1012.3
20260506182102 52 0.0 0.0 0.00 0.00 0.00 83 1012.3
20260506181103 52 0.0 0.0 0.00 0.00 0.00 86 1012.3
20260506180602 52 0.0 0.0 0.00 0.00 0.00 87 1012.2
20260506175603 52 0.0 0.0 0.00 0.00 0.00 89 1012.1
20260506175103 52 0.0 0.0 0.00 0.00 0.00 88 1012.1
20260506174603 52 0.0 0.0 0.00 0.00 0.00 81 1012.1
20260506174102 52 0.0 0.0 0.00 0.00 0.00 83 1012.0
20260506173603 53 0.0 0.0 0.00 0.00 0.00 87 1011.9
20260506173102 53 0.0 0.0 0.00 0.00 0.00 88 1012.0
20260506172603 53 0.0 0.0 0.00 0.00 0.00 87 1012.0
20260506172102 53 0.0 0.0 0.00 0.00 0.00 91 1011.9
20260506171602 53 0.0 0.0 0.00 0.00 0.00 90 1011.9
20260506171103 52 0.0 0.0 0.00 0.00 0.00 93 1011.7
20260506170602 52 0.0 0.0 0.00 0.00 0.00 92 1011.5
20260506165602 53 0.0 0.0 0.00 0.00 0.00 89 1011.3
20260506165103 53 0.0 0.0 0.00 0.00 0.00 88 1011.2
20260506164603 53 0.0 0.0 0.00 0.00 0.00 84 1011.2
20260506164103 53 0.0 0.0 0.00 0.00 0.00 76 1011.1
20260506163602 54 0.0 0.0 0.00 0.00 0.00 78 1011.0
20260506163103 54 0.0 0.0 0.00 0.00 0.00 73 1011.0
20260506162601 54 0.0 0.0 0.00 0.00 0.00 76 1010.9
20260506162102 54 0.0 0.0 0.00 0.00 0.00 72 1010.9
20260506161603 55 0.0 0.0 0.00 0.00 0.00 70 1010.8
20260506161102 55 0.0 0.0 0.00 0.00 0.00 77 1010.8
20260506160103 56 0.0 0.0 0.00 0.00 0.00 71 1010.8
20260506155602 56 0.0 0.0 0.00 0.00 0.00 67 1010.8
20260506155102 56 0.0 0.0 0.00 0.00 0.00 71 1010.9
20260506154103 55 0.0 0.0 0.00 0.00 0.00 75 1011.0
20260506153603 55 0.0 0.0 0.00 0.00 0.00 75 1011.0
20260506153102 55 0.0 0.0 0.00 0.00 0.00 76 1011.0
20260506152602 54 0.0 0.0 0.00 0.00 0.00 85 1011.1
20260506152103 54 0.0 0.0 0.00 0.00 0.00 82 1011.1
20260506151603 53 0.0 0.0 0.00 0.00 0.00 79 1011.2
20260506151102 53 0.0 0.0 0.00 0.00 0.00 85 1011.2
20260506145603 52 0.0 0.0 0.00 0.00 0.00 84 1010.9
20260506144602 53 0.0 0.0 0.00 0.00 0.00 83 1010.8
20260506144103 52 0.0 0.0 0.00 0.00 0.00 81 1010.8
20260506143602 53 0.0 0.0 0.00 0.00 0.00 83 1010.7
20260506143103 53 0.0 0.0 0.00 0.00 0.00 81 1010.7
20260506142602 54 0.0 0.0 0.00 0.00 0.00 78 1010.6
20260506142102 53 0.0 0.0 0.00 0.00 0.00 76 1010.5
20260506141601 54 0.0 0.0 0.00 0.00 0.00 77 1010.4
20260506141103 54 0.0 0.0 0.00 0.00 0.00 73 1010.5
20260506140603 55 0.0 0.0 0.00 0.00 0.00 72 1010.4
20260506135603 56 0.0 0.0 0.00 0.00 0.00 49 1010.4
20260506135103 56 0.0 0.0 0.00 0.00 0.00 47 1010.4
20260506134602 56 0.0 0.0 0.00 0.00 0.00 48 1010.3
20260506134102 56 0.0 0.0 0.00 0.00 0.00 47 1010.2
20260506133603 56 0.0 0.0 0.00 0.00 0.00 47 1010.1
20260506133103 56 0.0 0.0 0.00 0.00 0.00 47 1010.1
20260506132602 57 0.0 0.0 0.00 0.00 0.00 46 1010.0
20260506132102 57 0.0 0.0 0.00 0.00 0.00 45 1010.0
20260506131603 57 0.0 0.0 0.00 0.00 0.00 45 1009.9
20260506131102 57 0.0 0.0 0.00 0.00 0.00 45 1009.9
20260506130603 58 0.0 0.0 0.00 0.00 0.00 48 1009.9
20260506125101 57 0.0 0.0 0.00 0.00 0.00 48 1010.0